Location: Unspecified
(0.0000°N, 0.0000°E)
Time: 17:01:25
(UTC+00:00)

HO-68 - Pass Details

Date: 09 June 2023
Orbit: 1193 x 1204 km, 100.3° (Epoch: 28 September)

Event Time Altitude Azimuth Distance (km) Brightness Sun altitude
Rises 03:16:28 0° 7° (N) 4,088 ? -36.9°
Reaches altitude 10° 03:19:06 10° 4° (N) 3,124 ? -36.3°
Enters shadow 03:23:45 42° 345° (NNW) 1,632 ? -35.3°
